QPF
0.02 0.04 0.10 0.14 0.13 0.11 0.08 0.09 0.10 0.08 0.07 0.07 0.08 0.07 0.09 0.13 0.14 0.11 0.10 0.12 0.13 0.12 0.11 0.07 0.05 0.04 0.04 0.05 0.05 0.04 0.04 0.06 0.05 0.05 0.06 0.05 0.05 0.05 0.06 0.05 0.06 0.04 0.03
0.01 0.01 0.04 0.09 0.12 0.10 0.07 0.07 0.08 0.08 0.09 0.08 0.06 0.06 0.05 0.07 0.09 0.08 0.09 0.11 0.11 0.09 0.08 0.07 0.05 0.03 0.03 0.03 0.03 0.03 0.03 0.06 0.07 0.07 0.06 0.05 0.06 0.05 0.05 0.06 0.05 0.03 0.05
0.01 0.00 0.02 0.04 0.05 0.06 0.07 0.06 0.07 0.07 0.07 0.08 0.06 0.06 0.05 0.04 0.05 0.06 0.07 0.06 0.07 0.06 0.05 0.05 0.05 0.04 0.04 0.03 0.02 0.03 0.04 0.06 0.08 0.10 0.07 0.03 0.04 0.06 0.06 0.05 0.04 0.02 0.05
0.01 0.00 0.01 0.02 0.03 0.03 0.04 0.04 0.04 0.04 0.06 0.08 0.07 0.07 0.06 0.05 0.04 0.04 0.03 0.04 0.05 0.05 0.04 0.03 0.04 0.05 0.05 0.04 0.05 0.06 0.06 0.06 0.09 0.09 0.04 0.02 0.05 0.08 0.06 0.04 0.03 0.03 0.04
0.00 0.00 0.00 0.01 0.02 0.02 0.03 0.03 0.02 0.03 0.06 0.10 0.08 0.06 0.05 0.05 0.05 0.05 0.05 0.05 0.05 0.04 0.03 0.03 0.04 0.04 0.04 0.04 0.04 0.05 0.06 0.08 0.11 0.07 0.03 0.02 0.04 0.07 0.04 0.03 0.03 0.03 0.03
0.01 0.01 0.00 0.01 0.01 0.01 0.01 0.01 0.01 0.02 0.03 0.05 0.06 0.04 0.05 0.05 0.05 0.08 0.08 0.06 0.06 0.05 0.04 0.03 0.02 0.02 0.02 0.02 0.03 0.03 0.05 0.08 0.08 0.05 0.05 0.05 0.04 0.06 0.04 0.03 0.03 0.03 0.02
0.01 0.02 0.00 0.00 0.00 0.01 0.01 0.01 0.02 0.02 0.02 0.03 0.02 0.03 0.05 0.05 0.07 0.10 0.08 0.07 0.06 0.04 0.02 0.01 0.01 0.01 0.02 0.02 0.02 0.03 0.06 0.08 0.05 0.06 0.05 0.04 0.03 0.06 0.04 0.03 0.03 0.02 0.02
0.01 0.01 0.00 0.00 0.01 0.01 0.01 0.01 0.01 0.01 0.01 0.02 0.02 0.02 0.03 0.04 0.09 0.09 0.06 0.07 0.07 0.04 0.02 0.01 0.01 0.01 0.02 0.02 0.03 0.04 0.05 0.06 0.06 0.07 0.05 0.03 0.04 0.04 0.03 0.02 0.02 0.02 0.02
0.01 0.01 0.01 0.01 0.00 0.01 0.01 0.01 0.01 0.01 0.01 0.01 0.02 0.02 0.02 0.04 0.10 0.07 0.06 0.06 0.04 0.03 0.03 0.03 0.01 0.01 0.01 0.01 0.02 0.04 0.06 0.07 0.05 0.04 0.05 0.04 0.04 0.03 0.02 0.02 0.02 0.02 0.01
0.02 0.02 0.02 0.02 0.01 0.01 0.03 0.03 0.03 0.02 0.01 0.02 0.03 0.03 0.03 0.06 0.09 0.07 0.08 0.06 0.03 0.03 0.04 0.05 0.02 0.01 0.01 0.02 0.02 0.04 0.05 0.05 0.05 0.03 0.04 0.03 0.03 0.03 0.02 0.02 0.02 0.02 0.02
0.03 0.02 0.04 0.04 0.03 0.02 0.02 0.02 0.02 0.03 0.03 0.03 0.04 0.05 0.04 0.03 0.07 0.08 0.06 0.05 0.03 0.03 0.04 0.03 0.02 0.02 0.02 0.02 0.03 0.04 0.04 0.07 0.07 0.05 0.05 0.04 0.02 0.03 0.02 0.02 0.03 0.03 0.02
0.03 0.03 0.06 0.04 0.04 0.03 0.01 0.01 0.02 0.03 0.06 0.04 0.02 0.03 0.02 0.03 0.06 0.05 0.04 0.04 0.03 0.04 0.05 0.04 0.03 0.02 0.02 0.02 0.03 0.04 0.05 0.08 0.07 0.06 0.06 0.04 0.02 0.03 0.02 0.02 0.02 0.02 0.02
0.03 0.03 0.03 0.02 0.02 0.03 0.02 0.02 0.03 0.04 0.04 0.04 0.04 0.07 0.03 0.03 0.03 0.03 0.02 0.03 0.02 0.03 0.03 0.03 0.03 0.02 0.02 0.03 0.04 0.05 0.05 0.06 0.07 0.08 0.05 0.03 0.02 0.02 0.01 0.01 0.02 0.02 0.01
0.02 0.02 0.03 0.02 0.02 0.03 0.02 0.02 0.03 0.04 0.03 0.04 0.03 0.02 0.02 0.02 0.02 0.03 0.03 0.02 0.02 0.02 0.03 0.03 0.03 0.05 0.05 0.04 0.05 0.05 0.05 0.06 0.06 0.08 0.05 0.03 0.02 0.02 0.02 0.02 0.02 0.02 0.01
0.01 0.02 0.02 0.02 0.01 0.02 0.02 0.02 0.02 0.03 0.02 0.02 0.01 0.02 0.02 0.02 0.03 0.04 0.04 0.03 0.02 0.02 0.03 0.04 0.05 0.05 0.04 0.04 0.04 0.04 0.04 0.03 0.03 0.04 0.03 0.04 0.02 0.02 0.02 0.02 0.02 0.02 0.02
0.00 0.01 0.02 0.02 0.01 0.01 0.01 0.01 0.03 0.03 0.02 0.02 0.02 0.02 0.01 0.02 0.02 0.03 0.04 0.03 0.04 0.03 0.05 0.03 0.03 0.03 0.03 0.04 0.04 0.03 0.04 0.02 0.02 0.02 0.02 0.03 0.02 0.02 0.02 0.02 0.02 0.02 0.03
0.00 0.00 0.01 0.01 0.01 0.01 0.01 0.01 0.02 0.03 0.02 0.02 0.02 0.02 0.02 0.02 0.01 0.02 0.03 0.03 0.06 0.03 0.03 0.03 0.03 0.03 0.02 0.04 0.04 0.03 0.04 0.06 0.03 0.02 0.02 0.02 0.01 0.02 0.03 0.03 0.04 0.03 0.03
0.00 0.00 0.01 0.01 0.02 0.02 0.01 0.01 0.01 0.02 0.02 0.03 0.04 0.04 0.04 0.03 0.02 0.03 0.04 0.04 0.03 0.03 0.03 0.03 0.03 0.03 0.04 0.05 0.05 0.03 0.04 0.05 0.04 0.04 0.04 0.04 0.03 0.03 0.03 0.03 0.03 0.03 0.04
0.00 0.00 0.01 0.01 0.01 0.02 0.01 0.01 0.02 0.02 0.03 0.04 0.05 0.05 0.05 0.04 0.03 0.04 0.04 0.03 0.03 0.04 0.04 0.03 0.04 0.03 0.04 0.04 0.04 0.04 0.04 0.05 0.05 0.06 0.07 0.07 0.06 0.05 0.05 0.03 0.03 0.02 0.03
0.01 0.01 0.01 0.01 0.02 0.02 0.02 0.02 0.02 0.03 0.03 0.04 0.05 0.04 0.04 0.03 0.03 0.04 0.03 0.02 0.03 0.05 0.04 0.04 0.05 0.03 0.03 0.03 0.06 0.07 0.06 0.06 0.07 0.10 0.08 0.09 0.09 0.06 0.06 0.06 0.04 0.03 0.04
0.02 0.02 0.01 0.02 0.02 0.02 0.02 0.03 0.04 0.05 0.03 0.03 0.03 0.03 0.04 0.04 0.03 0.04 0.04 0.03 0.04 0.04 0.03 0.05 0.06 0.03 0.03 0.06 0.10 0.11 0.09 0.08 0.09 0.09 0.09 0.15 0.15 0.12 0.11 0.10 0.09 0.07 0.06
0.02 0.02 0.01 0.01 0.02 0.01 0.02 0.02 0.04 0.06 0.05 0.03 0.02 0.02 0.02 0.02 0.03 0.03 0.03 0.02 0.03 0.03 0.03 0.04 0.05 0.05 0.06 0.08 0.10 0.08 0.06 0.07 0.07 0.08 0.12 0.16 0.18 0.17 0.13 0.13 0.11 0.10 0.09
0.01 0.02 0.02 0.02 0.02 0.02 0.03 0.03 0.03 0.05 0.07 0.07 0.04 0.02 0.02 0.03 0.04 0.05 0.04 0.03 0.03 0.02 0.03 0.03 0.05 0.04 0.04 0.06 0.08 0.08 0.05 0.04 0.06 0.06 0.08 0.11 0.13 0.12 0.13 0.13 0.11 0.11 0.09
0.01 0.01 0.02 0.02 0.03 0.04 0.05 0.07 0.05 0.04 0.06 0.07 0.06 0.06 0.05 0.04 0.04 0.04 0.05 0.05 0.04 0.03 0.03 0.03 0.05 0.05 0.04 0.04 0.06 0.07 0.07 0.05 0.06 0.05 0.04 0.06 0.08 0.10 0.13 0.16 0.17 0.15 0.11
0.01 0.01 0.01 0.01 0.02 0.03 0.04 0.07 0.08 0.06 0.05 0.05 0.05 0.05 0.06 0.07 0.05 0.05 0.04 0.04 0.04 0.04 0.04 0.03 0.04 0.05 0.04 0.04 0.07 0.08 0.07 0.06 0.05 0.03 0.03 0.04 0.08 0.10 0.10 0.09 0.11 0.13 0.13
0.01 0.01 0.01 0.01 0.01 0.01 0.02 0.05 0.06 0.06 0.05 0.03 0.02 0.02 0.03 0.04 0.05 0.05 0.03 0.03 0.04 0.05 0.04 0.03 0.04 0.04 0.05 0.05 0.06 0.07 0.07 0.05 0.05 0.03 0.02 0.02 0.04 0.05 0.07 0.07 0.09 0.09 0.12
MSLP
1013.88 1013.34 1013.00 1012.90 1013.01 1013.26 1013.55 1013.78 1013.90 1013.89 1013.77 1013.61 1013.48 1013.42 1013.48 1013.63 1013.86 1014.10 1014.32 1014.48 1014.60 1014.68 1014.75 1014.85 1014.98 1015.15 1015.34 1015.52 1015.69 1015.82 1015.93 1016.04 1016.16 1016.33 1016.54 1016.79 1017.06 1017.32 1017.54 1017.72 1017.84 1017.92 1017.99
1013.69 1013.27 1013.02 1012.99 1013.13 1013.39 1013.67 1013.89 1014.00 1013.98 1013.86 1013.72 1013.62 1013.61 1013.70 1013.89 1014.14 1014.40 1014.62 1014.78 1014.89 1014.96 1015.01 1015.08 1015.18 1015.31 1015.46 1015.61 1015.74 1015.85 1015.95 1016.06 1016.21 1016.41 1016.66 1016.95 1017.25 1017.54 1017.78 1017.96 1018.09 1018.16 1018.23
1013.53 1013.22 1013.06 1013.09 1013.27 1013.53 1013.81 1014.01 1014.10 1014.08 1013.98 1013.87 1013.80 1013.82 1013.94 1014.14 1014.40 1014.64 1014.85 1015.00 1015.08 1015.13 1015.17 1015.23 1015.31 1015.42 1015.55 1015.67 1015.79 1015.89 1015.99 1016.12 1016.29 1016.52 1016.81 1017.14 1017.47 1017.77 1018.02 1018.21 1018.33 1018.41 1018.48
1013.40 1013.20 1013.12 1013.20 1013.41 1013.68 1013.94 1014.12 1014.21 1014.20 1014.12 1014.04 1014.01 1014.05 1014.18 1014.38 1014.61 1014.82 1015.00 1015.11 1015.18 1015.21 1015.25 1015.31 1015.40 1015.51 1015.64 1015.76 1015.87 1015.98 1016.10 1016.24 1016.44 1016.70 1017.02 1017.36 1017.70 1018.01 1018.26 1018.44 1018.57 1018.65 1018.73
1013.31 1013.19 1013.18 1013.30 1013.53 1013.80 1014.04 1014.22 1014.31 1014.31 1014.27 1014.22 1014.21 1014.28 1014.40 1014.58 1014.76 1014.93 1015.05 1015.13 1015.18 1015.22 1015.27 1015.35 1015.47 1015.61 1015.76 1015.90 1016.03 1016.15 1016.28 1016.45 1016.67 1016.95 1017.27 1017.62 1017.96 1018.25 1018.49 1018.66 1018.78 1018.88 1018.97
1013.23 1013.18 1013.23 1013.38 1013.61 1013.87 1014.10 1014.27 1014.36 1014.39 1014.38 1014.37 1014.39 1014.47 1014.58 1014.72 1014.86 1014.97 1015.04 1015.08 1015.12 1015.17 1015.26 1015.39 1015.56 1015.75 1015.95 1016.12 1016.27 1016.41 1016.55 1016.73 1016.95 1017.23 1017.55 1017.88 1018.20 1018.47 1018.69 1018.85 1018.96 1019.07 1019.19
1013.18 1013.18 1013.27 1013.43 1013.66 1013.90 1014.11 1014.26 1014.36 1014.41 1014.43 1014.46 1014.52 1014.60 1014.71 1014.82 1014.90 1014.95 1014.98 1015.00 1015.03 1015.11 1015.24 1015.44 1015.68 1015.93 1016.18 1016.39 1016.56 1016.71 1016.86 1017.03 1017.25 1017.51 1017.81 1018.13 1018.42 1018.66 1018.85 1018.99 1019.10 1019.21 1019.36
1013.15 1013.20 1013.30 1013.48 1013.68 1013.89 1014.07 1014.20 1014.30 1014.36 1014.42 1014.49 1014.58 1014.68 1014.78 1014.86 1014.91 1014.91 1014.90 1014.90 1014.94 1015.05 1015.24 1015.50 1015.81 1016.13 1016.42 1016.67 1016.86 1017.02 1017.16 1017.32 1017.52 1017.76 1018.04 1018.33 1018.59 1018.81 1018.98 1019.11 1019.21 1019.33 1019.48
1013.19 1013.26 1013.39 1013.55 1013.72 1013.89 1014.02 1014.12 1014.20 1014.28 1014.36 1014.47 1014.59 1014.72 1014.82 1014.89 1014.91 1014.88 1014.85 1014.84 1014.89 1015.03 1015.26 1015.58 1015.95 1016.32 1016.65 1016.92 1017.12 1017.28 1017.41 1017.55 1017.73 1017.95 1018.21 1018.48 1018.72 1018.93 1019.09 1019.21 1019.31 1019.42 1019.58
1013.30 1013.40 1013.54 1013.68 1013.82 1013.93 1014.01 1014.07 1014.12 1014.19 1014.30 1014.43 1014.59 1014.75 1014.87 1014.94 1014.95 1014.91 1014.86 1014.84 1014.90 1015.06 1015.32 1015.67 1016.07 1016.47 1016.82 1017.10 1017.31 1017.45 1017.58 1017.70 1017.86 1018.07 1018.32 1018.58 1018.82 1019.03 1019.19 1019.32 1019.42 1019.53 1019.68
1013.49 1013.63 1013.77 1013.90 1014.00 1014.05 1014.07 1014.07 1014.09 1014.14 1014.26 1014.42 1014.61 1014.80 1014.95 1015.04 1015.06 1015.02 1014.97 1014.95 1015.01 1015.16 1015.43 1015.79 1016.19 1016.59 1016.94 1017.21 1017.41 1017.55 1017.66 1017.78 1017.93 1018.14 1018.38 1018.65 1018.90 1019.13 1019.31 1019.44 1019.55 1019.66 1019.79
1013.73 1013.91 1014.07 1014.19 1014.25 1014.25 1014.20 1014.15 1014.12 1014.16 1014.27 1014.45 1014.67 1014.90 1015.09 1015.21 1015.25 1015.24 1015.19 1015.17 1015.22 1015.36 1015.61 1015.94 1016.31 1016.69 1017.02 1017.28 1017.47 1017.60 1017.70 1017.81 1017.97 1018.17 1018.42 1018.70 1018.97 1019.22 1019.42 1019.58 1019.70 1019.82 1019.93
1013.96 1014.19 1014.37 1014.49 1014.52 1014.48 1014.38 1014.28 1014.21 1014.22 1014.33 1014.53 1014.78 1015.05 1015.28 1015.45 1015.53 1015.55 1015.52 1015.51 1015.54 1015.66 1015.87 1016.15 1016.47 1016.80 1017.10 1017.33 1017.50 1017.62 1017.73 1017.84 1018.00 1018.20 1018.45 1018.74 1019.02 1019.29 1019.52 1019.70 1019.85 1019.97 1020.08
1014.12 1014.39 1014.61 1014.73 1014.76 1014.69 1014.56 1014.43 1014.34 1014.33 1014.43 1014.63 1014.91 1015.21 1015.49 1015.70 1015.84 1015.90 1015.92 1015.92 1015.95 1016.03 1016.19 1016.42 1016.68 1016.95 1017.20 1017.40 1017.56 1017.68 1017.78 1017.90 1018.04 1018.24 1018.48 1018.76 1019.04 1019.32 1019.56 1019.77 1019.93 1020.07 1020.19
1014.14 1014.45 1014.70 1014.85 1014.88 1014.82 1014.69 1014.55 1014.45 1014.44 1014.53 1014.74 1015.02 1015.35 1015.66 1015.93 1016.13 1016.25 1016.31 1016.34 1016.37 1016.44 1016.56 1016.73 1016.93 1017.15 1017.35 1017.52 1017.66 1017.78 1017.88 1017.99 1018.13 1018.30 1018.51 1018.75 1019.01 1019.27 1019.51 1019.73 1019.91 1020.07 1020.21
1014.00 1014.33 1014.61 1014.79 1014.86 1014.83 1014.74 1014.62 1014.53 1014.52 1014.61 1014.80 1015.08 1015.41 1015.75 1016.06 1016.31 1016.50 1016.62 1016.70 1016.76 1016.83 1016.93 1017.05 1017.21 1017.37 1017.54 1017.68 1017.81 1017.92 1018.02 1018.12 1018.23 1018.36 1018.52 1018.71 1018.91 1019.12 1019.34 1019.55 1019.75 1019.93 1020.09
1013.72 1014.07 1014.37 1014.58 1014.70 1014.72 1014.68 1014.61 1014.56 1014.56 1014.64 1014.82 1015.08 1015.39 1015.73 1016.06 1016.35 1016.60 1016.79 1016.93 1017.04 1017.13 1017.23 1017.34 1017.46 1017.59 1017.73 1017.86 1017.98 1018.09 1018.18 1018.26 1018.34 1018.42 1018.51 1018.62 1018.74 1018.89 1019.06 1019.25 1019.45 1019.64 1019.83
1013.39 1013.72 1014.02 1014.27 1014.43 1014.53 1014.56 1014.56 1014.56 1014.58 1014.66 1014.80 1015.01 1015.28 1015.59 1015.92 1016.23 1016.53 1016.78 1016.99 1017.17 1017.31 1017.43 1017.54 1017.66 1017.77 1017.89 1018.02 1018.14 1018.24 1018.33 1018.40 1018.44 1018.46 1018.48 1018.50 1018.53 1018.60 1018.71 1018.85 1019.04 1019.24 1019.45
1013.07 1013.36 1013.65 1013.91 1014.13 1014.30 1014.42 1014.50 1014.56 1014.61 1014.68 1014.78 1014.93 1015.13 1015.38 1015.67 1015.98 1016.30 1016.61 1016.89 1017.14 1017.34 1017.50 1017.64 1017.76 1017.88 1018.00 1018.12 1018.25 1018.36 1018.45 1018.50 1018.52 1018.50 1018.44 1018.38 1018.33 1018.31 1018.34 1018.43 1018.58 1018.77 1018.98
1012.83 1013.07 1013.33 1013.59 1013.85 1014.09 1014.30 1014.47 1014.60 1014.69 1014.75 1014.80 1014.87 1014.98 1015.14 1015.37 1015.65 1015.98 1016.32 1016.66 1016.97 1017.24 1017.46 1017.63 1017.78 1017.90 1018.03 1018.16 1018.29 1018.41 1018.51 1018.57 1018.57 1018.52 1018.42 1018.30 1018.17 1018.08 1018.04 1018.06 1018.16 1018.31 1018.49
1012.71 1012.88 1013.09 1013.34 1013.62 1013.93 1014.23 1014.49 1014.69 1014.82 1014.88 1014.89 1014.88 1014.89 1014.95 1015.09 1015.32 1015.62 1015.98 1016.36 1016.72 1017.05 1017.32 1017.53 1017.70 1017.84 1017.98 1018.12 1018.26 1018.40 1018.52 1018.59 1018.61 1018.55 1018.43 1018.27 1018.10 1017.94 1017.83 1017.79 1017.82 1017.92 1018.05
1012.69 1012.79 1012.94 1013.16 1013.46 1013.81 1014.18 1014.53 1014.81 1014.99 1015.07 1015.04 1014.97 1014.88 1014.85 1014.89 1015.05 1015.31 1015.66 1016.05 1016.44 1016.81 1017.12 1017.36 1017.55 1017.71 1017.85 1018.00 1018.16 1018.32 1018.47 1018.57 1018.62 1018.58 1018.48 1018.31 1018.11 1017.92 1017.75 1017.65 1017.61 1017.63 1017.69
1012.72 1012.75 1012.84 1013.02 1013.31 1013.70 1014.14 1014.56 1014.92 1015.17 1015.27 1015.24 1015.12 1014.96 1014.84 1014.79 1014.87 1015.07 1015.39 1015.77 1016.17 1016.56 1016.89 1017.15 1017.36 1017.52 1017.67 1017.82 1018.00 1018.18 1018.36 1018.50 1018.59 1018.60 1018.53 1018.39 1018.20 1017.98 1017.78 1017.62 1017.51 1017.45 1017.43
1012.73 1012.71 1012.74 1012.88 1013.15 1013.55 1014.03 1014.53 1014.96 1015.28 1015.43 1015.42 1015.28 1015.08 1014.89 1014.77 1014.77 1014.91 1015.18 1015.54 1015.93 1016.31 1016.64 1016.91 1017.12 1017.28 1017.43 1017.59 1017.77 1017.98 1018.19 1018.38 1018.52 1018.59 1018.57 1018.47 1018.30 1018.09 1017.86 1017.65 1017.47 1017.33 1017.23
1012.68 1012.62 1012.60 1012.69 1012.93 1013.33 1013.84 1014.39 1014.89 1015.27 1015.48 1015.51 1015.39 1015.18 1014.95 1014.78 1014.73 1014.81 1015.03 1015.34 1015.70 1016.07 1016.39 1016.65 1016.85 1017.00 1017.15 1017.30 1017.49 1017.72 1017.96 1018.19 1018.39 1018.52 1018.55 1018.50 1018.36 1018.16 1017.93 1017.68 1017.45 1017.25 1017.07
1012.55 1012.47 1012.41 1012.46 1012.67 1013.05 1013.56 1014.14 1014.69 1015.13 1015.40 1015.48 1015.39 1015.19 1014.96 1014.76 1014.67 1014.71 1014.88 1015.15 1015.48 1015.81 1016.11 1016.36 1016.54 1016.69 1016.82 1016.97 1017.17 1017.40 1017.67 1017.94 1018.18 1018.36 1018.45 1018.44 1018.34 1018.16 1017.93 1017.67 1017.40 1017.15 1016.92
Thickness
5768 5771 5772 5772 5772 5772 5772 5771 5771 5770 5770 5770 5770 5769 5768 5767 5766 5766 5766 5765 5764 5763 5762 5762 5761 5761 5760 5759 5759 5757 5756 5755 5754 5753 5751 5750 5749 5748 5747 5746 5745 5743 5742
5773 5772 5772 5772 5771 5771 5771 5770 5770 5769 5769 5768 5768 5767 5767 5766 5766 5765 5764 5763 5762 5761 5761 5761 5760 5759 5758 5758 5757 5756 5754 5754 5753 5751 5750 5749 5748 5747 5746 5745 5744 5743 5742
5774 5773 5771 5770 5770 5770 5769 5769 5768 5768 5768 5767 5766 5766 5766 5765 5765 5763 5763 5762 5761 5760 5759 5759 5758 5758 5757 5756 5756 5755 5753 5752 5751 5750 5749 5748 5747 5746 5746 5744 5743 5742 5741
5775 5773 5771 5770 5769 5769 5768 5768 5767 5767 5766 5766 5765 5765 5764 5764 5763 5762 5761 5760 5760 5759 5758 5758 5757 5756 5756 5755 5754 5753 5752 5751 5750 5748 5747 5747 5746 5745 5745 5744 5743 5741 5740
5775 5773 5771 5769 5768 5768 5767 5767 5766 5765 5765 5765 5764 5764 5763 5762 5762 5761 5760 5759 5758 5758 5757 5757 5756 5755 5755 5754 5753 5752 5750 5749 5749 5747 5746 5746 5745 5745 5744 5743 5742 5740 5739
5774 5772 5771 5769 5768 5767 5766 5766 5765 5764 5764 5763 5763 5762 5762 5761 5760 5760 5759 5758 5758 5757 5756 5756 5755 5755 5754 5753 5752 5751 5750 5749 5748 5746 5745 5745 5744 5744 5743 5742 5741 5739 5738
5773 5772 5770 5769 5767 5766 5765 5764 5764 5763 5763 5762 5762 5761 5760 5760 5759 5758 5758 5757 5757 5756 5755 5755 5754 5754 5753 5752 5751 5750 5749 5748 5747 5746 5744 5744 5743 5743 5742 5741 5740 5739 5737
5775 5772 5770 5768 5767 5766 5764 5763 5763 5762 5762 5761 5760 5760 5760 5759 5758 5757 5757 5756 5756 5755 5754 5754 5753 5752 5752 5751 5750 5749 5748 5747 5746 5745 5744 5743 5743 5742 5741 5740 5739 5738 5736
5775 5772 5770 5768 5766 5765 5764 5763 5762 5762 5761 5760 5759 5759 5759 5758 5757 5756 5756 5755 5755 5754 5753 5753 5752 5752 5751 5750 5749 5748 5748 5747 5746 5744 5743 5743 5742 5742 5741 5739 5738 5737 5736
5774 5772 5770 5768 5766 5764 5763 5762 5761 5761 5760 5760 5759 5758 5758 5757 5756 5756 5755 5754 5754 5753 5752 5752 5751 5751 5750 5750 5749 5748 5748 5747 5746 5745 5744 5743 5742 5742 5740 5739 5738 5736 5735
5772 5771 5770 5768 5766 5764 5763 5762 5761 5760 5760 5759 5758 5758 5757 5756 5755 5755 5754 5753 5753 5752 5752 5751 5750 5750 5750 5749 5749 5748 5748 5747 5746 5745 5744 5743 5743 5742 5740 5739 5737 5736 5735
5771 5771 5771 5769 5767 5765 5764 5762 5760 5760 5759 5758 5757 5757 5756 5755 5754 5753 5753 5752 5752 5752 5751 5751 5750 5750 5749 5749 5749 5748 5748 5747 5745 5745 5744 5743 5743 5742 5741 5739 5737 5736 5735
5776 5774 5773 5771 5768 5766 5764 5762 5760 5759 5758 5757 5757 5756 5755 5754 5753 5752 5752 5752 5752 5751 5751 5751 5750 5750 5749 5749 5749 5749 5748 5747 5746 5745 5744 5744 5743 5742 5741 5739 5737 5736 5734
5779 5777 5775 5773 5770 5768 5766 5763 5761 5759 5758 5757 5756 5756 5755 5754 5753 5752 5751 5751 5751 5751 5750 5750 5750 5750 5750 5749 5749 5749 5749 5748 5746 5745 5745 5744 5744 5743 5741 5739 5738 5736 5734
5782 5780 5778 5776 5774 5771 5767 5764 5762 5761 5759 5758 5757 5756 5756 5755 5753 5752 5751 5751 5751 5750 5750 5749 5750 5750 5750 5750 5750 5750 5749 5748 5747 5746 5746 5745 5744 5743 5741 5740 5738 5736 5735
5786 5783 5781 5778 5776 5773 5769 5766 5764 5762 5761 5760 5758 5757 5756 5756 5755 5753 5752 5752 5751 5751 5750 5750 5750 5750 5750 5750 5750 5750 5749 5748 5748 5747 5746 5744 5743 5742 5741 5740 5739 5737 5735
5789 5786 5783 5781 5778 5775 5772 5769 5767 5765 5763 5761 5760 5759 5757 5756 5756 5755 5753 5752 5752 5751 5751 5750 5750 5750 5750 5750 5749 5749 5749 5748 5747 5746 5745 5744 5743 5742 5741 5740 5739 5737 5736
5793 5789 5786 5784 5779 5777 5774 5771 5769 5766 5764 5762 5761 5760 5758 5757 5757 5756 5754 5753 5753 5752 5751 5750 5750 5749 5748 5748 5747 5748 5748 5748 5747 5745 5745 5744 5743 5742 5742 5740 5739 5737 5736
5798 5792 5788 5785 5781 5778 5776 5773 5770 5767 5765 5764 5762 5760 5759 5758 5757 5757 5756 5755 5754 5752 5752 5751 5750 5748 5746 5746 5746 5747 5747 5748 5747 5746 5745 5744 5743 5742 5741 5740 5738 5737 5736
5801 5796 5791 5787 5783 5780 5776 5773 5770 5767 5765 5764 5763 5761 5760 5759 5759 5758 5756 5755 5754 5753 5751 5751 5749 5748 5747 5746 5746 5745 5745 5746 5746 5746 5745 5744 5743 5742 5740 5739 5738 5737 5735
5802 5797 5793 5787 5783 5780 5776 5771 5768 5765 5765 5763 5763 5762 5761 5760 5759 5758 5757 5755 5754 5752 5751 5751 5749 5747 5745 5746 5742 5739 5741 5744 5744 5744 5744 5743 5742 5740 5739 5738 5737 5735 5734
5803 5799 5794 5790 5786 5783 5779 5776 5772 5769 5766 5765 5765 5764 5763 5762 5760 5759 5757 5756 5755 5753 5751 5750 5749 5746 5745 5745 5740 5733 5730 5733 5738 5742 5741 5741 5740 5739 5737 5736 5734 5733 5732
5805 5802 5799 5793 5789 5786 5782 5778 5774 5769 5766 5764 5763 5763 5764 5763 5762 5761 5759 5757 5756 5754 5751 5750 5750 5746 5742 5743 5743 5736 5727 5724 5729 5735 5737 5739 5738 5737 5736 5735 5733 5731 5730
5810 5807 5802 5797 5792 5788 5784 5779 5772 5767 5763 5764 5764 5764 5765 5764 5763 5762 5760 5758 5757 5755 5753 5752 5751 5749 5745 5740 5740 5741 5738 5735 5727 5725 5730 5734 5735 5734 5734 5734 5732 5730 5728
5815 5809 5804 5799 5794 5790 5786 5781 5775 5770 5768 5767 5766 5764 5764 5764 5764 5762 5761 5759 5757 5755 5754 5753 5751 5749 5747 5743 5740 5739 5737 5735 5733 5726 5723 5726 5729 5730 5731 5731 5730 5728 5727
5816 5811 5806 5800 5795 5792 5788 5783 5778 5772 5769 5766 5765 5763 5763 5763 5763 5762 5761 5759 5758 5756 5754 5753 5752 5750 5748 5745 5743 5741 5738 5734 5731 5728 5723 5723 5723 5726 5728 5728 5728 5727 5725